Regional Weather Roundup
Issued by NWS

Home | Current Version | Previous Version | Graphics & Text | Print | Product List | Glossary On
Versions: 1 2 3 4 5 6 7 8 9 10 11 12 13 14 15 16 17 18 19 20 21 22 23 24 25 26 27 28 29 30 31 32 33 34 35 36 37 38 39 40 41 42 43 44 45 46 47 48 49 50
000
ASUS43 KLSX 271907
RWRMO

WEATHER SUMMARY FOR MISSOURI
NATIONAL WEATHER SERVICE SPRINGFIELD MO
100 PM CST TUE JAN 27 2015

NOTE: "FAIR" INDICATES FEW OR NO CLOUDS BELOW 12,000 FEET WITH NO
       SIGNIFICANT WEATHER AND/OR OBSTRUCTIONS TO VISIBILITY.
       CURRENT SKY AND/OR WEATHER CONDITIONS ARE NOT AVAILABLE FOR
       CHILLICOTHE AND FARMINGTON.

MOZ001>031-035>038-043-044-053-054-272000-
...NORTHERN AND WESTERN MISSOURI...

CITY           SKY/WX    TMP DP  RH WIND       PRES   REMARKS
KANSAS CTY INT MOSUNNY   51  33  50 CALM      30.13F
KANSAS C DTWN  SUNNY     52  32  46 VRB3      30.13F
LEE`S SUMMIT   SUNNY     51  31  46 SE5       30.14F
ST JOSEPH      SUNNY     50  32  50 S5        30.13F
CHILLICOTHE      N/A     47  33  58 S6        30.16F
KIRKSVILLE     MOSUNNY   43  32  65 CALM      30.17F

$$
MOZ066>068-077>081-088>096-101>105-272000-
...SOUTHWEST MISSOURI...

CITY           SKY/WX    TMP DP  RH WIND       PRES   REMARKS
SPRINGFIELD    SUNNY     54  30  40 VRB3      30.14F
JOPLIN         SUNNY     57  31  37 VRB3      30.14F

$$
MOZ032>034-039>042-045>050-055>058-069>072-272000-
...CENTRAL MISSOURI...

CITY           SKY/WX    TMP DP  RH WIND       PRES   REMARKS
COLUMBIA       SUNNY     47  34  60 W3        30.15F
JEFFERSON CITY SUNNY     47  33  58 CALM      30.16F
ROLLA          MOSUNNY   47  33  58 CALM      30.12F
SEDALIA        SUNNY     49  33  54 CALM      30.16F
WHITEMAN AFB   SUNNY     49  34  55 N3        30.15F
WARRENSBURG    SUNNY     50  32  50 CALM      30.15F
OSAGE BEACH    SUNNY     50  30  46 NE6       30.15F

$$
MOZ051-052-059>065-272000-
...EAST CENTRAL MISSOURI...

CITY           SKY/WX    TMP DP  RH WIND       PRES   REMARKS
ST LOUIS INTL  PTSUNNY   44  31  60 N9        30.15F
SPIRIT OF STL  PTSUNNY   46  31  55 N7        30.15F
ST CHARLES     CLOUDY    43  33  68 N8        30.16S

$$
MOZ072>076-082>087-097>100-106>115-272000-
...SOUTH CENTRAL AND SOUTHEAST MISSOURI...

CITY           SKY/WX    TMP DP  RH WIND       PRES   REMARKS
CAPE GIRARDEAU CLOUDY    45  33  63 N10       30.14F
FARMINGTON     PTSUNNY   46  30  53 MISG      30.16S
POPLAR BLUFF   MOSUNNY   49  34  56 VRB5      30.13F
WEST PLAINS    SUNNY     53  29  39 NW6       30.13F

$$


USA.gov is the U.S. government's official web portal to all federal, state and local government web resources and services.